Showing default

ITASAT, 43786

Orbit data source: Space-Track

ITASAT, 43786 is a payload satellite owned by ITA (BR) in SSO that was launched on Mon, 03 Dec 2018 UTC via an FALCON 9 launch vehicle from the Air Force Western Test Range (AFWTR). Payload-class satellites include a variety of spacecraft equipped with specific instruments for various scientific and technological missions. These include communications satellites like Starlink; space stations such as the ISS; scientific satellites like the Hubble; Earth observation satellites from companies like Planet Labs, Umbra, and HawkEye 360; GPS; miniature CubeSats for education and research; and military/defense satellites.

Loading next visibility...
Identifier
43786, 2018-099AE
Orbit
SSO
Country
Flag of UnknownUnknown / BRAZ
Related business
Manufacturer
ITA
Mission
Operational Civil Technology
Bus & Motor
CUBESAT 6U, Unknown motor
Mass
8 kg wet, 8 kg dry
Launch date (UTC)
2018-12-03 (7 years ago)
Launch vehicle
FALCON 9
Launch site
Air Force Western Test Range (AFWTR)
Object type
Payload
Rocket body
Debris
Shape & HBR
Box, 0.1 m
Radar Cross Section
0.080 m², Medium (>0.1 m² and < 1m²)

Expand to show TLE details & history
Last TLE update: 18 hours ago

TLE from 18 hours ago
0 ITASAT
1 43786U 18099AE  25258.66059631  .00006640  00000-0  36733-3 0  9994
2 43786  97.4471 310.8595 0013004 221.4983 138.5262 15.14118694371299
Epoch: 2025-09-15T15:51Z
TLE epoch observation values (Epoch: 2025-09-15T15:51:15.521Z)
Latitude
-0.00005°
Longitude
78.18278°
Altitude
533.468 km
Speed
7.592 km/s
True Right ascension
20h 43m 26s
True Declination
0° 00' 00"
Sunlit
Object was in full shadow at epoch
Visualization orbit readout
Latitude
Unknown
Longitude
Unknown
Altitude
Unknown
Speed
Unknown
Apparent Right ascension
Unknown
Apparent Declination
Unknown
Sunlit
N/A
Visualization observer readout
Local Sidereal Time
02:22:53
Azimuth
Unknown
Elevation
Unknown
Doppler factor
Unknown
Orbital elements
Apogee altitude
529.602 km
Perigee altitude
511.66 km
Semi-major axis
6,898.768 km
Eccentricity
0.0013
Inclination
97.4471°
RAAN
310.8595°
Arg. of periapsis
221.4983°
True anomaly
138.62477°
Mean anomaly
138.5262°
Eccentric anomaly
138.5755°
Mean motion
3.78779 °/min
Orbital period
95.04 mins
BSTAR
0.00036733
Loading maneuver chart data...
Computing Atmospheric mass density...
Loading historical data...
Loading historical data...
Loading historical data...
Loading historical data...
Loading historical data...
Loading historical data...
Loading historical data...

Documentation

Showing up to 5 results
|